Content
SEND FEEDBACK

Daily
Averages
Monthly
Summary
Canada

HAMILTON, ONTARIO


Home > North America > Canada > Ontario
Elevation: 776 feet     Latitude: 43 10N     Longitude: 079 55W

WEATHER
 
SELECT A DAY
Number of Records: 172,583;   Date Range: 1/1/95 - 12/26/14
 
SHARE

PRINT THIS DATA

[ ← Previous Day ]
WEATHER ALMANAC - JUNE 26, 2013
[ Next Day → ]
[ °C ]   °F
We're sorry. There is no daily almanac available for Hamilton, Ontario on June 26, 2013.
WEATHER BY HOUR - JUNE 26, 2013
[ °C ]   °F
Local TimeTemperatureDewpointHumidityBarometerVisibilityWind DirectionWind SpeedGust SpeedPrecipitationEventsConditions
1:00 AM66.2 °F64.4 °F94 %29.85 in15.0 miSW (230°)8.1 mphMostly Cloudy
2:00 AM66.0 °F65.0 °F97 %29.85 in15.0 miWSW (240°)8.1 mphScattered Clouds
2:00 AM66.2 °F64.4 °F94 %29.85 in15.0 miWSW (240°)8.1 mphMostly Cloudy
3:00 AM66.2 °F66.2 °F100 %29.82 in8.0 miWSW (250°)6.9 mphMostly Cloudy
4:00 AM66.2 °F66.2 °F100 %29.81 in8.0 miWSW (240°)6.9 mphMostly Cloudy
5:00 AM66.2 °F66.2 °F100 %29.83 in5.0 miSW (220°)6.9 mphOvercast
5:45 AM66.2 °F66.2 °F100 %29.83 in2.0 miWSW (240°)6.9 mphOvercast
6:00 AM66.2 °F66.2 °F100 %29.83 in1.8 miSSW (210°)6.9 mphOvercast
6:51 AM68.0 °F66.2 °F94 %29.84 in4.0 miSSW (210°)8.1 mphMostly Cloudy
7:00 AM68.0 °F66.2 °F94 %29.84 in3.0 miSW (220°)8.1 mphOvercast
8:00 AM70.0 °F68.0 °F92 %29.83 in4.0 miWSW (240°)9.2 mphOvercast
8:00 AM69.8 °F68.0 °F94 %29.83 in4.0 miWSW (240°)9.2 mphOvercast
9:00 AM73.4 °F68.0 °F83 %29.83 in8.0 miWest (270°)9.2 mphMostly Cloudy
10:00 AM75.2 °F68.0 °F78 %29.84 in10.0 miWSW (250°)9.2 mphMostly Cloudy
11:00 AM77.0 °F68.0 °F74 %29.84 in15.0 miWSW (240°)12.7 mphMostly Cloudy
12:00 PM78.8 °F68.0 °F69 %29.83 in15.0 miWest (260°)10.4 mphMostly Cloudy
1:00 PM80.6 °F68.0 °F65 %29.84 in15.0 miSW (230°)6.9 mphMostly Cloudy
2:00 PM81.0 °F66.0 °F51 %29.83 in15.0 miSW (230°)10.4 mphMostly Cloudy
2:00 PM80.6 °F66.2 °F61 %29.83 in15.0 miWSW (240°)9.2 mphMostly Cloudy
3:00 PM78.8 °F68.0 °F69 %29.82 in15.0 miNNW (330°)8.1 mphMostly Cloudy
4:00 PM80.6 °F66.2 °F61 %29.81 in15.0 miENE (60°)4.6 mphRainLight Rain Showers
4:41 PM77.0 °F68.0 °F74 %29.81 in15.0 miWNW (300°)6.9 mphRainRain Showers
4:47 PM75.2 °F68.0 °F78 %29.81 in15.0 miWSW (240°)6.9 mphRainLight Rain Showers
5:00 PM75.2 °F68.0 °F78 %29.82 in15.0 miSW (220°)5.8 mphRainLight Rain Showers
6:00 PM77.0 °F69.8 °F78 %29.79 in15.0 miSSE (160°)9.2 mphMostly Cloudy
7:00 PM75.2 °F68.0 °F78 %29.80 in15.0 miSouth (180°)10.4 mphMostly Cloudy
8:00 PM75.0 °F70.0 °F79 %29.79 in15.0 miSouth (180°)6.9 mphPartly Cloudy
8:00 PM75.2 °F69.8 °F83 %29.79 in15.0 miSouth (190°)6.9 mphMostly Cloudy
9:00 PM73.4 °F68.0 °F83 %29.79 in15.0 miSouth (190°)6.9 mphMostly Cloudy
10:00 PM69.8 °F66.2 °F88 %29.80 in15.0 miSW (220°)5.8 mphScattered Clouds
11:00 PM69.8 °F68.0 °F94 %29.81 in15.0 miSSW (210°)3.5 mphMostly Cloudy
Hourly data recorded from CYHM, located miles away from Hamilton, Ontario







STORIES FROM OUR PARTNERS